Location: The C. Gantt Observatory
(33.6981°N, 81.6836°W)
Time: 16:18:19
(UTC-04:00)

Iridium 30 - Visible Passes

Search period start: 03 July 2015 00:00
Search period end: 13 July 2015 00:00
Orbit: 776 x 779 km, 86.4° (Epoch: 03 July)

Date Brightness Start Highest point End Pass type
(mag) Time Alt. Az. Time Alt. Az. Time Alt. Az.
03 Jul 5.5 21:35:50 10° S 21:41:00 70° E 21:46:12 10° N visible
03 Jul 8.5 23:21:28 10° W 23:22:23 10° WNW 23:22:54 10° WNW visible
04 Jul 6.2 21:02:55 10° SSE 21:07:34 35° E 21:12:19 10° NNE visible
04 Jul 7.9 22:44:30 10° SW 22:48:27 21° WNW 22:52:14 10° NNW visible
05 Jul 6.8 22:09:48 10° SSW 22:14:41 40° W 22:19:33 10° NNW visible
06 Jul 5.7 21:35:53 10° S 21:41:05 79° W 21:46:19 10° N visible
07 Jul 5.7 21:02:34 10° SSE 21:07:36 53° E 21:12:41 10° NNE visible
07 Jul 8.3 22:46:00 10° WSW 22:48:47 14° WNW 22:51:15 10° NW visible
08 Jul 7.6 22:10:29 10° SW 22:14:54 27° W 22:19:13 10° NNW visible
09 Jul 6.4 21:36:08 10° SSW 21:41:12 52° W 21:46:17 10° N visible
10 Jul 5.5 21:02:27 10° S 21:07:39 80° E 21:12:53 10° N visible
11 Jul 8.2 22:11:33 10° WSW 22:15:11 18° WNW 22:18:36 10° NW visible
12 Jul 7.2 21:36:38 10° SSW 21:41:22 34° W 21:46:05 10° NNW visible
